Year,Month,Day,Hour,Minute,Value (Times are PST for insolation in W/m^2)
2021,05,19,00,00,0.00
2021,05,19,00,01,0.00
2021,05,19,00,02,0.00
2021,05,19,00,03,0.00
2021,05,19,00,04,0.00
2021,05,19,00,05,0.00
2021,05,19,00,06,0.00
2021,05,19,00,07,0.00
2021,05,19,00,08,0.00
2021,05,19,00,09,0.00
2021,05,19,00,10,0.00
2021,05,19,00,11,0.00
2021,05,19,00,12,0.00
2021,05,19,00,13,0.00
2021,05,19,00,14,0.00
2021,05,19,00,15,0.00
2021,05,19,00,16,0.00
2021,05,19,00,17,0.00
2021,05,19,00,18,0.00
2021,05,19,00,19,0.00
2021,05,19,00,20,0.00
2021,05,19,00,21,0.00
2021,05,19,00,22,0.00
2021,05,19,00,23,0.00
2021,05,19,00,24,0.00
2021,05,19,00,25,0.00
2021,05,19,00,26,0.00
2021,05,19,00,27,0.00
2021,05,19,00,28,0.00
2021,05,19,00,29,0.00
2021,05,19,00,30,0.00
2021,05,19,00,31,0.00
2021,05,19,00,32,0.00
2021,05,19,00,33,0.00
2021,05,19,00,34,0.00
2021,05,19,00,35,0.00
2021,05,19,00,36,0.00
2021,05,19,00,37,0.00
2021,05,19,00,38,0.00
2021,05,19,00,39,0.00
2021,05,19,00,40,0.00
2021,05,19,00,41,0.00
2021,05,19,00,42,0.00
2021,05,19,00,43,0.00
2021,05,19,00,44,0.00
2021,05,19,00,45,0.00
2021,05,19,00,46,0.00
2021,05,19,00,47,0.00
2021,05,19,00,48,0.00
2021,05,19,00,49,0.00
2021,05,19,00,50,0.00
2021,05,19,00,51,0.00
2021,05,19,00,52,0.00
2021,05,19,00,53,0.00
2021,05,19,00,54,0.00
2021,05,19,00,55,0.00
2021,05,19,00,56,0.00
2021,05,19,00,57,0.00
2021,05,19,00,58,0.00
2021,05,19,00,59,0.00
2021,05,19,01,00,0.00
2021,05,19,01,01,0.00
2021,05,19,01,02,0.00
2021,05,19,01,03,0.00
2021,05,19,01,04,0.00
2021,05,19,01,05,0.00
2021,05,19,01,06,0.00
2021,05,19,01,07,0.00
2021,05,19,01,08,0.00
2021,05,19,01,09,0.00
2021,05,19,01,10,0.00
2021,05,19,01,11,0.00
2021,05,19,01,12,0.00
2021,05,19,01,13,0.00
2021,05,19,01,14,0.00
2021,05,19,01,15,0.00
2021,05,19,01,16,0.00
2021,05,19,01,17,0.00
2021,05,19,01,18,0.00
2021,05,19,01,19,0.00
2021,05,19,01,20,0.00
2021,05,19,01,21,0.00
2021,05,19,01,22,0.00
2021,05,19,01,23,0.00
2021,05,19,01,24,0.00
2021,05,19,01,25,0.00
2021,05,19,01,26,0.00
2021,05,19,01,27,0.00
2021,05,19,01,28,0.00
2021,05,19,01,29,0.00
2021,05,19,01,30,0.00
2021,05,19,01,31,0.00
2021,05,19,01,32,0.00
2021,05,19,01,33,0.00
2021,05,19,01,34,0.00
2021,05,19,01,35,0.00
2021,05,19,01,36,0.00
2021,05,19,01,37,0.00
2021,05,19,01,38,0.00
2021,05,19,01,39,0.00
2021,05,19,01,40,0.00
2021,05,19,01,41,0.00
2021,05,19,01,42,0.00
2021,05,19,01,43,0.00
2021,05,19,01,44,0.00
2021,05,19,01,45,0.00
2021,05,19,01,46,0.00
2021,05,19,01,47,0.00
2021,05,19,01,48,0.00
2021,05,19,01,49,0.00
2021,05,19,01,50,0.00
2021,05,19,01,51,0.00
2021,05,19,01,52,0.00
2021,05,19,01,53,0.00
2021,05,19,01,54,0.00
2021,05,19,01,55,0.00
2021,05,19,01,56,0.00
2021,05,19,01,57,0.00
2021,05,19,01,58,0.00
2021,05,19,01,59,0.00
2021,05,19,02,00,0.00
2021,05,19,02,01,0.00
2021,05,19,02,02,0.00
2021,05,19,02,03,0.00
2021,05,19,02,04,0.00
2021,05,19,02,05,0.00
2021,05,19,02,06,0.00
2021,05,19,02,07,0.00
2021,05,19,02,08,0.00
2021,05,19,02,09,0.00
2021,05,19,02,10,0.00
2021,05,19,02,11,0.00
2021,05,19,02,12,0.00
2021,05,19,02,13,0.00
2021,05,19,02,14,0.00
2021,05,19,02,15,0.00
2021,05,19,02,16,0.00
2021,05,19,02,17,0.00
2021,05,19,02,18,0.00
2021,05,19,02,19,0.00
2021,05,19,02,20,0.00
2021,05,19,02,21,0.00
2021,05,19,02,22,0.00
2021,05,19,02,23,0.00
2021,05,19,02,24,0.00
2021,05,19,02,25,0.00
2021,05,19,02,26,0.00
2021,05,19,02,27,0.00
2021,05,19,02,28,0.00
2021,05,19,02,29,0.00
2021,05,19,02,30,0.00
2021,05,19,02,31,0.00
2021,05,19,02,32,0.00
2021,05,19,02,33,0.00
2021,05,19,02,34,0.00
2021,05,19,02,35,0.00
2021,05,19,02,36,0.00
2021,05,19,02,37,0.00
2021,05,19,02,38,0.00
2021,05,19,02,39,0.00
2021,05,19,02,40,0.00
2021,05,19,02,41,0.00
2021,05,19,02,42,0.00
2021,05,19,02,43,0.00
2021,05,19,02,44,0.00
2021,05,19,02,45,0.00
2021,05,19,02,46,0.00
2021,05,19,02,47,0.00
2021,05,19,02,48,0.00
2021,05,19,02,49,0.00
2021,05,19,02,50,0.00
2021,05,19,02,51,0.00
2021,05,19,02,52,0.00
2021,05,19,02,53,0.00
2021,05,19,02,54,0.00
2021,05,19,02,55,0.00
2021,05,19,02,56,0.00
2021,05,19,02,57,0.00
2021,05,19,02,58,0.00
2021,05,19,02,59,0.00
2021,05,19,03,00,0.00
2021,05,19,03,01,0.00
2021,05,19,03,02,0.00
2021,05,19,03,03,0.00
2021,05,19,03,04,0.00
2021,05,19,03,05,0.00
2021,05,19,03,06,0.00
2021,05,19,03,07,0.00
2021,05,19,03,08,0.00
2021,05,19,03,09,0.00
2021,05,19,03,10,0.00
2021,05,19,03,11,0.00
2021,05,19,03,12,0.00
2021,05,19,03,13,0.00
2021,05,19,03,14,0.00
2021,05,19,03,15,0.00
2021,05,19,03,16,0.00
2021,05,19,03,17,0.00
2021,05,19,03,18,0.00
2021,05,19,03,19,0.00
2021,05,19,03,20,0.00
2021,05,19,03,21,0.00
2021,05,19,03,22,0.00
2021,05,19,03,23,0.00
2021,05,19,03,24,0.00
2021,05,19,03,25,0.00
2021,05,19,03,26,0.00
2021,05,19,03,27,0.00
2021,05,19,03,28,0.00
2021,05,19,03,29,0.00
2021,05,19,03,30,0.00
2021,05,19,03,31,0.00
2021,05,19,03,32,0.00
2021,05,19,03,33,0.00
2021,05,19,03,34,0.00
2021,05,19,03,35,0.00
2021,05,19,03,36,0.00
2021,05,19,03,37,0.00
2021,05,19,03,38,0.00
2021,05,19,03,39,0.00
2021,05,19,03,40,0.00
2021,05,19,03,41,0.00
2021,05,19,03,42,0.00
2021,05,19,03,43,0.00
2021,05,19,03,44,0.00
2021,05,19,03,45,0.00
2021,05,19,03,46,0.00
2021,05,19,03,47,0.00
2021,05,19,03,48,0.00
2021,05,19,03,49,0.00
2021,05,19,03,50,0.00
2021,05,19,03,51,0.00
2021,05,19,03,52,0.00
2021,05,19,03,53,0.00
2021,05,19,03,54,0.00
2021,05,19,03,55,0.00
2021,05,19,03,56,0.00
2021,05,19,03,57,0.00
2021,05,19,03,58,0.00
2021,05,19,03,59,0.00
2021,05,19,04,00,0.00
2021,05,19,04,01,0.00
2021,05,19,04,02,0.00
2021,05,19,04,03,0.00
2021,05,19,04,04,0.00
2021,05,19,04,05,0.00
2021,05,19,04,06,0.00
2021,05,19,04,07,0.00
2021,05,19,04,08,0.00
2021,05,19,04,09,0.00
2021,05,19,04,10,0.00
2021,05,19,04,11,0.00
2021,05,19,04,12,0.00
2021,05,19,04,13,0.00
2021,05,19,04,14,0.00
2021,05,19,04,15,0.00
2021,05,19,04,16,0.00
2021,05,19,04,17,0.00
2021,05,19,04,18,0.00
2021,05,19,04,19,0.00
2021,05,19,04,20,0.00
2021,05,19,04,21,0.00
2021,05,19,04,22,0.00
2021,05,19,04,23,0.00
2021,05,19,04,24,0.00
2021,05,19,04,25,0.00
2021,05,19,04,26,0.00
2021,05,19,04,27,0.00
2021,05,19,04,28,0.00
2021,05,19,04,29,0.00
2021,05,19,04,30,0.00
2021,05,19,04,31,0.00
2021,05,19,04,32,0.00
2021,05,19,04,33,0.00
2021,05,19,04,34,0.00
2021,05,19,04,35,0.00
2021,05,19,04,36,0.00
2021,05,19,04,37,0.00
2021,05,19,04,38,0.00
2021,05,19,04,39,0.00
2021,05,19,04,40,0.00
2021,05,19,04,41,0.00
2021,05,19,04,42,0.00
2021,05,19,04,43,0.00
2021,05,19,04,44,0.00
2021,05,19,04,45,0.00
2021,05,19,04,46,0.00
2021,05,19,04,47,0.00
2021,05,19,04,48,0.00
2021,05,19,04,49,0.00
2021,05,19,04,50,0.00
2021,05,19,04,51,0.00
2021,05,19,04,52,0.00
2021,05,19,04,53,0.00
2021,05,19,04,54,0.00
2021,05,19,04,55,0.00
2021,05,19,04,56,0.00
2021,05,19,04,57,0.00
2021,05,19,04,58,0.00
2021,05,19,04,59,0.00
2021,05,19,05,00,0.00
2021,05,19,05,01,0.00
2021,05,19,05,02,0.00
2021,05,19,05,03,0.00
2021,05,19,05,04,0.00
2021,05,19,05,05,0.00
2021,05,19,05,06,0.00
2021,05,19,05,07,0.00
2021,05,19,05,08,0.00
2021,05,19,05,09,0.00
2021,05,19,05,10,0.00
2021,05,19,05,11,0.00
2021,05,19,05,12,0.00
2021,05,19,05,13,0.00
2021,05,19,05,14,0.00
2021,05,19,05,15,0.00
2021,05,19,05,16,0.00
2021,05,19,05,17,0.00
2021,05,19,05,18,0.00
2021,05,19,05,19,0.00
2021,05,19,05,20,0.00
2021,05,19,05,21,0.00
2021,05,19,05,22,0.00
2021,05,19,05,23,0.00
2021,05,19,05,24,0.00
2021,05,19,05,25,0.00
2021,05,19,05,26,0.00
2021,05,19,05,27,0.00
2021,05,19,05,28,0.00
2021,05,19,05,29,0.00
2021,05,19,05,30,0.00
2021,05,19,05,31,0.00
2021,05,19,05,32,0.20
2021,05,19,05,33,5.00
2021,05,19,05,34,5.00
2021,05,19,05,35,5.00
2021,05,19,05,36,5.00
2021,05,19,05,37,6.30
2021,05,19,05,38,7.00
2021,05,19,05,39,7.00
2021,05,19,05,40,7.00
2021,05,19,05,41,7.00
2021,05,19,05,42,7.80
2021,05,19,05,43,9.00
2021,05,19,05,44,9.00
2021,05,19,05,45,9.00
2021,05,19,05,46,9.10
2021,05,19,05,47,11.00
2021,05,19,05,48,11.00
2021,05,19,05,49,11.00
2021,05,19,05,50,11.00
2021,05,19,05,51,11.60
2021,05,19,05,52,12.00
2021,05,19,05,53,12.00
2021,05,19,05,54,12.00
2021,05,19,05,55,12.00
2021,05,19,05,56,12.80
2021,05,19,05,57,14.00
2021,05,19,05,58,14.00
2021,05,19,05,59,14.00
2021,05,19,06,00,14.00
2021,05,19,06,01,14.30
2021,05,19,06,02,16.00
2021,05,19,06,03,16.00
2021,05,19,06,04,16.00
2021,05,19,06,05,16.00
2021,05,19,06,06,17.50
2021,05,19,06,07,18.00
2021,05,19,06,08,18.00
2021,05,19,06,09,18.30
2021,05,19,06,10,19.00
2021,05,19,06,11,19.00
2021,05,19,06,12,20.30
2021,05,19,06,13,24.90
2021,05,19,06,14,34.30
2021,05,19,06,15,36.00
2021,05,19,06,16,30.00
2021,05,19,06,17,27.00
2021,05,19,06,18,25.60
2021,05,19,06,19,28.00
2021,05,19,06,20,26.50
2021,05,19,06,21,26.00
2021,05,19,06,22,25.00
2021,05,19,06,23,25.30
2021,05,19,06,24,26.00
2021,05,19,06,25,27.00
2021,05,19,06,26,28.00
2021,05,19,06,27,31.10
2021,05,19,06,28,35.20
2021,05,19,06,29,46.60
2021,05,19,06,30,42.10
2021,05,19,06,31,35.50
2021,05,19,06,32,32.50
2021,05,19,06,33,30.70
2021,05,19,06,34,33.90
2021,05,19,06,35,49.20
2021,05,19,06,36,40.20
2021,05,19,06,37,62.10
2021,05,19,06,38,84.80
2021,05,19,06,39,103.00
2021,05,19,06,40,104.70
2021,05,19,06,41,106.60
2021,05,19,06,42,110.80
2021,05,19,06,43,113.30
2021,05,19,06,44,116.50
2021,05,19,06,45,118.80
2021,05,19,06,46,120.50
2021,05,19,06,47,123.60
2021,05,19,06,48,126.60
2021,05,19,06,49,128.10
2021,05,19,06,50,132.30
2021,05,19,06,51,134.30
2021,05,19,06,52,136.50
2021,05,19,06,53,140.00
2021,05,19,06,54,141.70
2021,05,19,06,55,143.60
2021,05,19,06,56,147.70
2021,05,19,06,57,149.30
2021,05,19,06,58,152.10
2021,05,19,06,59,155.40
2021,05,19,07,00,156.00
2021,05,19,07,01,159.90
2021,05,19,07,02,162.80
2021,05,19,07,03,166.80
2021,05,19,07,04,171.40
2021,05,19,07,05,174.50
2021,05,19,07,06,177.20
2021,05,19,07,07,180.10
2021,05,19,07,08,183.50
2021,05,19,07,09,185.80
2021,05,19,07,10,189.50
2021,05,19,07,11,193.30
2021,05,19,07,12,195.50
2021,05,19,07,13,197.00
2021,05,19,07,14,198.60
2021,05,19,07,15,202.70
2021,05,19,07,16,206.30
2021,05,19,07,17,207.00
2021,05,19,07,18,207.10
2021,05,19,07,19,214.50
2021,05,19,07,20,219.20
2021,05,19,07,21,222.00
2021,05,19,07,22,224.30
2021,05,19,07,23,228.10
2021,05,19,07,24,230.10
2021,05,19,07,25,236.20
2021,05,19,07,26,237.60
2021,05,19,07,27,239.80
2021,05,19,07,28,242.60
2021,05,19,07,29,245.30
2021,05,19,07,30,247.60
2021,05,19,07,31,249.90
2021,05,19,07,32,251.60
2021,05,19,07,33,255.50
2021,05,19,07,34,258.20
2021,05,19,07,35,261.00
2021,05,19,07,36,263.30
2021,05,19,07,37,266.30
2021,05,19,07,38,268.90
2021,05,19,07,39,271.50
2021,05,19,07,40,274.60
2021,05,19,07,41,276.80
2021,05,19,07,42,279.60
2021,05,19,07,43,282.30
2021,05,19,07,44,284.50
2021,05,19,07,45,283.20
2021,05,19,07,46,283.60
2021,05,19,07,47,287.30
2021,05,19,07,48,288.00
2021,05,19,07,49,291.20
2021,05,19,07,50,296.00
2021,05,19,07,51,300.10
2021,05,19,07,52,305.60
2021,05,19,07,53,307.10
2021,05,19,07,54,312.50
2021,05,19,07,55,309.10
2021,05,19,07,56,301.30
2021,05,19,07,57,293.70
2021,05,19,07,58,288.90
2021,05,19,07,59,269.10
2021,05,19,08,00,231.20
2021,05,19,08,01,216.00
2021,05,19,08,02,217.60
2021,05,19,08,03,234.00
2021,05,19,08,04,250.40
2021,05,19,08,05,261.50
2021,05,19,08,06,292.40
2021,05,19,08,07,321.50
2021,05,19,08,08,346.10
2021,05,19,08,09,362.40
2021,05,19,08,10,366.50
2021,05,19,08,11,369.50
2021,05,19,08,12,372.50
2021,05,19,08,13,374.00
2021,05,19,08,14,376.60
2021,05,19,08,15,380.90
2021,05,19,08,16,383.80
2021,05,19,08,17,386.00
2021,05,19,08,18,388.90
2021,05,19,08,19,391.50
2021,05,19,08,20,395.60
2021,05,19,08,21,396.40
2021,05,19,08,22,400.10
2021,05,19,08,23,403.40
2021,05,19,08,24,405.10
2021,05,19,08,25,407.30
2021,05,19,08,26,410.30
2021,05,19,08,27,414.60
2021,05,19,08,28,417.50
2021,05,19,08,29,420.50
2021,05,19,08,30,423.20
2021,05,19,08,31,426.00
2021,05,19,08,32,429.60
2021,05,19,08,33,431.80
2021,05,19,08,34,432.20
2021,05,19,08,35,436.40
2021,05,19,08,36,435.80
2021,05,19,08,37,434.70
2021,05,19,08,38,413.20
2021,05,19,08,39,407.90
2021,05,19,08,40,448.80
2021,05,19,08,41,459.00
2021,05,19,08,42,465.10
2021,05,19,08,43,472.80
2021,05,19,08,44,482.20
2021,05,19,08,45,494.20
2021,05,19,08,46,467.00
2021,05,19,08,47,503.70
2021,05,19,08,48,506.60
2021,05,19,08,49,496.20
2021,05,19,08,50,499.10
2021,05,19,08,51,506.50
2021,05,19,08,52,513.50
2021,05,19,08,53,500.00
2021,05,19,08,54,513.10
2021,05,19,08,55,522.00
2021,05,19,08,56,529.00
2021,05,19,08,57,544.40
2021,05,19,08,58,563.80
2021,05,19,08,59,588.90
2021,05,19,09,00,606.20
2021,05,19,09,01,616.90
2021,05,19,09,02,620.80
2021,05,19,09,03,621.40
2021,05,19,09,04,625.30
2021,05,19,09,05,631.90
2021,05,19,09,06,644.60
2021,05,19,09,07,652.00
2021,05,19,09,08,652.00
2021,05,19,09,09,722.20
2021,05,19,09,10,764.40
2021,05,19,09,11,785.30
2021,05,19,09,12,787.00
2021,05,19,09,13,758.70
2021,05,19,09,14,737.00
2021,05,19,09,15,737.00
2021,05,19,09,16,757.00
2021,05,19,09,17,752.00
2021,05,19,09,18,752.00
2021,05,19,09,19,562.80
2021,05,19,09,20,269.30
2021,05,19,09,21,278.00
2021,05,19,09,22,278.00
2021,05,19,09,23,188.60
2021,05,19,09,24,164.20
2021,05,19,09,25,160.00
2021,05,19,09,26,162.10
2021,05,19,09,27,168.20
2021,05,19,09,28,175.60
2021,05,19,09,29,181.90
2021,05,19,09,30,185.80
2021,05,19,09,31,188.00
2021,05,19,09,32,189.10
2021,05,19,09,33,193.90
2021,05,19,09,34,199.60
2021,05,19,09,35,205.30
2021,05,19,09,36,207.00
2021,05,19,09,37,207.10
2021,05,19,09,38,211.50
2021,05,19,09,39,215.10
2021,05,19,09,40,218.80
2021,05,19,09,41,220.50
2021,05,19,09,42,222.30
2021,05,19,09,43,226.10
2021,05,19,09,44,235.30
2021,05,19,09,45,255.10
2021,05,19,09,46,266.20
2021,05,19,09,47,258.70
2021,05,19,09,48,250.50
2021,05,19,09,49,250.00
2021,05,19,09,50,248.40
2021,05,19,09,51,244.30
2021,05,19,09,52,244.60
2021,05,19,09,53,248.80
2021,05,19,09,54,251.80
2021,05,19,09,55,253.00
2021,05,19,09,56,251.70
2021,05,19,09,57,247.10
2021,05,19,09,58,244.10
2021,05,19,09,59,241.00
2021,05,19,10,00,241.60
2021,05,19,10,01,245.10
2021,05,19,10,02,249.60
2021,05,19,10,03,253.60
2021,05,19,10,04,256.60
2021,05,19,10,05,262.10
2021,05,19,10,06,277.40
2021,05,19,10,07,304.00
2021,05,19,10,08,319.90
2021,05,19,10,09,324.90
2021,05,19,10,10,317.00
2021,05,19,10,11,301.00
2021,05,19,10,12,301.00
2021,05,19,10,13,308.80
2021,05,19,10,14,314.90
2021,05,19,10,15,323.70
2021,05,19,10,16,340.30
2021,05,19,10,17,392.80
2021,05,19,10,18,477.80
2021,05,19,10,19,492.00
2021,05,19,10,20,498.50
2021,05,19,10,21,523.30
2021,05,19,10,22,475.50
2021,05,19,10,23,437.40
2021,05,19,10,24,422.00
2021,05,19,10,25,422.00
2021,05,19,10,26,422.00
2021,05,19,10,27,852.10
2021,05,19,10,28,870.50
2021,05,19,10,29,872.00
2021,05,19,10,30,872.00
2021,05,19,10,31,872.00
2021,05,19,10,32,872.00
2021,05,19,10,33,837.30
2021,05,19,10,34,821.00
2021,05,19,10,35,823.70
2021,05,19,10,36,835.90
2021,05,19,10,37,852.50
2021,05,19,10,38,876.70
2021,05,19,10,39,909.10
2021,05,19,10,40,940.90
2021,05,19,10,41,944.00
2021,05,19,10,42,944.00
2021,05,19,10,43,704.00
2021,05,19,10,44,355.00
2021,05,19,10,45,355.00
2021,05,19,10,46,355.00
2021,05,19,10,47,355.00
2021,05,19,10,48,355.00
2021,05,19,10,49,355.00
2021,05,19,10,50,355.00
2021,05,19,10,51,355.00
2021,05,19,10,52,340.00
2021,05,19,10,53,288.90
2021,05,19,10,54,287.10
2021,05,19,10,55,323.00
2021,05,19,10,56,323.00
2021,05,19,10,57,361.30
2021,05,19,10,58,367.50
2021,05,19,10,59,337.00
2021,05,19,11,00,298.60
2021,05,19,11,01,315.40
2021,05,19,11,02,999.60
2021,05,19,11,03,990.80
2021,05,19,11,04,994.00
2021,05,19,11,05,1023.00
2021,05,19,11,06,961.00
2021,05,19,11,07,999.50
2021,05,19,11,08,1029.20
2021,05,19,11,09,996.10
2021,05,19,11,10,947.00
2021,05,19,11,11,947.00
2021,05,19,11,12,947.00
2021,05,19,11,13,947.00
2021,05,19,11,14,947.00
2021,05,19,11,15,921.00
2021,05,19,11,16,248.90
2021,05,19,11,17,276.00
2021,05,19,11,18,572.20
2021,05,19,11,19,992.10
2021,05,19,11,20,1024.70
2021,05,19,11,21,1047.10
2021,05,19,11,22,1051.00
2021,05,19,11,23,946.10
2021,05,19,11,24,343.00
2021,05,19,11,25,639.50
2021,05,19,11,26,1114.00
2021,05,19,11,27,573.90
2021,05,19,11,28,288.00
2021,05,19,11,29,288.00
2021,05,19,11,30,1023.50
2021,05,19,11,31,1034.90
2021,05,19,11,32,1022.70
2021,05,19,11,33,1011.00
2021,05,19,11,34,1011.00
2021,05,19,11,35,1011.00
2021,05,19,11,36,1011.00
2021,05,19,11,37,910.10
2021,05,19,11,38,342.60
2021,05,19,11,39,307.10
2021,05,19,11,40,295.20
2021,05,19,11,41,288.90
2021,05,19,11,42,348.50
2021,05,19,11,43,451.00
2021,05,19,11,44,418.00
2021,05,19,11,45,418.00
2021,05,19,11,46,418.00
2021,05,19,11,47,321.60
2021,05,19,11,48,239.00
2021,05,19,11,49,807.60
2021,05,19,11,50,969.80
2021,05,19,11,51,999.50
2021,05,19,11,52,1063.00
2021,05,19,11,53,1063.00
2021,05,19,11,54,1063.00
2021,05,19,11,55,1063.00
2021,05,19,11,56,1063.00
2021,05,19,11,57,1063.00
2021,05,19,11,58,1048.70
2021,05,19,11,59,973.90
2021,05,19,12,00,976.10
2021,05,19,12,01,960.30
2021,05,19,12,02,954.00
2021,05,19,12,03,949.90
2021,05,19,12,04,947.20
2021,05,19,12,05,887.60
2021,05,19,12,06,561.00
2021,05,19,12,07,561.00
2021,05,19,12,08,561.00
2021,05,19,12,09,797.70
2021,05,19,12,10,921.40
2021,05,19,12,11,927.40
2021,05,19,12,12,930.30
2021,05,19,12,13,930.90
2021,05,19,12,14,928.80
2021,05,19,12,15,931.50
2021,05,19,12,16,936.80
2021,05,19,12,17,941.30
2021,05,19,12,18,943.40
2021,05,19,12,19,934.50
2021,05,19,12,20,933.90
2021,05,19,12,21,945.90
2021,05,19,12,22,978.10
2021,05,19,12,23,985.20
2021,05,19,12,24,979.00
2021,05,19,12,25,979.00
2021,05,19,12,26,862.40
2021,05,19,12,27,221.00
2021,05,19,12,28,221.00
2021,05,19,12,29,221.00
2021,05,19,12,30,221.00
2021,05,19,12,31,784.90
2021,05,19,12,32,942.50
2021,05,19,12,33,948.40
2021,05,19,12,34,958.40
2021,05,19,12,35,969.90
2021,05,19,12,36,981.70
2021,05,19,12,37,995.00
2021,05,19,12,38,1003.10
2021,05,19,12,39,1020.80
2021,05,19,12,40,1035.60
2021,05,19,12,41,1047.10
2021,05,19,12,42,1082.40
2021,05,19,12,43,1102.00
2021,05,19,12,44,615.30
2021,05,19,12,45,302.80
2021,05,19,12,46,236.10
2021,05,19,12,47,201.90
2021,05,19,12,48,218.00
2021,05,19,12,49,523.00
2021,05,19,12,50,1011.00
2021,05,19,12,51,980.90
2021,05,19,12,52,965.00
2021,05,19,12,53,964.50
2021,05,19,12,54,951.80
2021,05,19,12,55,957.90
2021,05,19,12,56,964.60
2021,05,19,12,57,968.60
2021,05,19,12,58,964.80
2021,05,19,12,59,962.00
2021,05,19,13,00,961.70
2021,05,19,13,01,955.70
2021,05,19,13,02,965.60
2021,05,19,13,03,968.30
2021,05,19,13,04,971.10
2021,05,19,13,05,972.00
2021,05,19,13,06,972.00
2021,05,19,13,07,986.20
2021,05,19,13,08,996.70
2021,05,19,13,09,995.00
2021,05,19,13,10,995.00
2021,05,19,13,11,987.50
2021,05,19,13,12,977.70
2021,05,19,13,13,970.60
2021,05,19,13,14,965.30
2021,05,19,13,15,965.00
2021,05,19,13,16,964.50
2021,05,19,13,17,962.60
2021,05,19,13,18,959.80
2021,05,19,13,19,941.70
2021,05,19,13,20,955.60
2021,05,19,13,21,965.20
2021,05,19,13,22,978.30
2021,05,19,13,23,991.00
2021,05,19,13,24,991.80
2021,05,19,13,25,982.80
2021,05,19,13,26,970.70
2021,05,19,13,27,975.20
2021,05,19,13,28,962.00
2021,05,19,13,29,994.70
2021,05,19,13,30,1016.00
2021,05,19,13,31,1016.00
2021,05,19,13,32,979.70
2021,05,19,13,33,949.30
2021,05,19,13,34,952.50
2021,05,19,13,35,952.90
2021,05,19,13,36,951.30
2021,05,19,13,37,953.30
2021,05,19,13,38,953.60
2021,05,19,13,39,953.50
2021,05,19,13,40,965.80
2021,05,19,13,41,954.30
2021,05,19,13,42,944.60
2021,05,19,13,43,945.40
2021,05,19,13,44,941.40
2021,05,19,13,45,940.00
2021,05,19,13,46,937.30
2021,05,19,13,47,933.20
2021,05,19,13,48,932.80
2021,05,19,13,49,930.10
2021,05,19,13,50,925.20
2021,05,19,13,51,921.00
2021,05,19,13,52,921.00
2021,05,19,13,53,920.00
2021,05,19,13,54,918.30
2021,05,19,13,55,918.80
2021,05,19,13,56,920.70
2021,05,19,13,57,919.60
2021,05,19,13,58,923.80
2021,05,19,13,59,926.00
2021,05,19,14,00,925.50
2021,05,19,14,01,922.50
2021,05,19,14,02,922.50
2021,05,19,14,03,925.60
2021,05,19,14,04,925.20
2021,05,19,14,05,924.50
2021,05,19,14,06,920.20
2021,05,19,14,07,917.50
2021,05,19,14,08,916.00
2021,05,19,14,09,916.00
2021,05,19,14,10,918.60
2021,05,19,14,11,917.70
2021,05,19,14,12,916.50
2021,05,19,14,13,918.40
2021,05,19,14,14,918.50
2021,05,19,14,15,919.90
2021,05,19,14,16,926.40
2021,05,19,14,17,929.90
2021,05,19,14,18,923.50
2021,05,19,14,19,886.40
2021,05,19,14,20,910.80
2021,05,19,14,21,909.00
2021,05,19,14,22,906.40
2021,05,19,14,23,901.10
2021,05,19,14,24,903.70
2021,05,19,14,25,904.70
2021,05,19,14,26,909.50
2021,05,19,14,27,912.20
2021,05,19,14,28,914.00
2021,05,19,14,29,916.70
2021,05,19,14,30,918.80
2021,05,19,14,31,911.60
2021,05,19,14,32,900.30
2021,05,19,14,33,889.70
2021,05,19,14,34,884.00
2021,05,19,14,35,882.60
2021,05,19,14,36,882.70
2021,05,19,14,37,883.50
2021,05,19,14,38,884.00
2021,05,19,14,39,880.70
2021,05,19,14,40,879.00
2021,05,19,14,41,877.40
2021,05,19,14,42,874.50
2021,05,19,14,43,874.70
2021,05,19,14,44,874.20
2021,05,19,14,45,874.00
2021,05,19,14,46,875.30
2021,05,19,14,47,876.50
2021,05,19,14,48,875.00
2021,05,19,14,49,876.10
2021,05,19,14,50,877.00
2021,05,19,14,51,875.40
2021,05,19,14,52,875.00
2021,05,19,14,53,874.20
2021,05,19,14,54,871.10
2021,05,19,14,55,857.70
2021,05,19,14,56,850.40
2021,05,19,14,57,835.90
2021,05,19,14,58,808.50
2021,05,19,14,59,837.40
2021,05,19,15,00,833.70
2021,05,19,15,01,813.80
2021,05,19,15,02,823.60
2021,05,19,15,03,835.40
2021,05,19,15,04,849.10
2021,05,19,15,05,842.50
2021,05,19,15,06,840.00
2021,05,19,15,07,832.00
2021,05,19,15,08,829.00
2021,05,19,15,09,834.70
2021,05,19,15,10,824.80
2021,05,19,15,11,797.40
2021,05,19,15,12,809.30
2021,05,19,15,13,792.80
2021,05,19,15,14,790.20
2021,05,19,15,15,794.20
2021,05,19,15,16,778.30
2021,05,19,15,17,769.80
2021,05,19,15,18,762.00
2021,05,19,15,19,755.00
2021,05,19,15,20,748.90
2021,05,19,15,21,776.30
2021,05,19,15,22,745.60
2021,05,19,15,23,717.50
2021,05,19,15,24,720.80
2021,05,19,15,25,731.30
2021,05,19,15,26,744.60
2021,05,19,15,27,785.00
2021,05,19,15,28,788.10
2021,05,19,15,29,782.50
2021,05,19,15,30,741.40
2021,05,19,15,31,687.10
2021,05,19,15,32,707.10
2021,05,19,15,33,740.50
2021,05,19,15,34,730.00
2021,05,19,15,35,775.80
2021,05,19,15,36,762.40
2021,05,19,15,37,731.50
2021,05,19,15,38,713.40
2021,05,19,15,39,769.30
2021,05,19,15,40,750.80
2021,05,19,15,41,765.40
2021,05,19,15,42,771.60
2021,05,19,15,43,738.10
2021,05,19,15,44,723.90
2021,05,19,15,45,725.00
2021,05,19,15,46,714.30
2021,05,19,15,47,742.70
2021,05,19,15,48,754.00
2021,05,19,15,49,754.00
2021,05,19,15,50,747.00
2021,05,19,15,51,719.90
2021,05,19,15,52,699.90
2021,05,19,15,53,712.00
2021,05,19,15,54,698.20
2021,05,19,15,55,691.00
2021,05,19,15,56,689.20
2021,05,19,15,57,688.80
2021,05,19,15,58,706.90
2021,05,19,15,59,700.00
2021,05,19,16,00,700.00
2021,05,19,16,01,686.20
2021,05,19,16,02,682.00
2021,05,19,16,03,676.30
2021,05,19,16,04,628.70
2021,05,19,16,05,654.20
2021,05,19,16,06,659.90
2021,05,19,16,07,688.10
2021,05,19,16,08,729.80
2021,05,19,16,09,740.00
2021,05,19,16,10,740.00
2021,05,19,16,11,738.10
2021,05,19,16,12,733.00
2021,05,19,16,13,478.90
2021,05,19,16,14,243.00
2021,05,19,16,15,243.00
2021,05,19,16,16,259.40
2021,05,19,16,17,686.00
2021,05,19,16,18,686.00
2021,05,19,16,19,513.80
2021,05,19,16,20,279.00
2021,05,19,16,21,279.00
2021,05,19,16,22,279.00
2021,05,19,16,23,665.10
2021,05,19,16,24,681.30
2021,05,19,16,25,685.10
2021,05,19,16,26,652.80
2021,05,19,16,27,673.00
2021,05,19,16,28,629.20
2021,05,19,16,29,659.70
2021,05,19,16,30,604.80
2021,05,19,16,31,599.00
2021,05,19,16,32,588.60
2021,05,19,16,33,604.20
2021,05,19,16,34,663.70
2021,05,19,16,35,665.40
2021,05,19,16,36,664.00
2021,05,19,16,37,643.70
2021,05,19,16,38,594.40
2021,05,19,16,39,582.80
2021,05,19,16,40,583.90
2021,05,19,16,41,576.20
2021,05,19,16,42,565.60
2021,05,19,16,43,588.20
2021,05,19,16,44,570.00
2021,05,19,16,45,521.70
2021,05,19,16,46,528.10
2021,05,19,16,47,550.80
2021,05,19,16,48,526.20
2021,05,19,16,49,487.00
2021,05,19,16,50,460.10
2021,05,19,16,51,528.80
2021,05,19,16,52,554.60
2021,05,19,16,53,546.90
2021,05,19,16,54,556.50
2021,05,19,16,55,544.80
2021,05,19,16,56,549.00
2021,05,19,16,57,557.70
2021,05,19,16,58,552.60
2021,05,19,16,59,547.50
2021,05,19,17,00,551.20
2021,05,19,17,01,554.40
2021,05,19,17,02,558.10
2021,05,19,17,03,557.10
2021,05,19,17,04,547.30
2021,05,19,17,05,534.70